カタログに戻る

STARLINK-37744

運用中通信SSO
NORAD 69347·PAYLOAD·🇺🇸 United States

打ち上げ Jun 3, 2026 から Vandenberg Space Force Base

Loading…

次のパス (今後24時間)

TLE

最新Source: CelesTrak SupGP

元期: Sep 14, 2026, 23:07 UTC

1 69347C 26122U   26257.96368056  .00037178  00000+0  11542-2 0  2574
2 69347  97.2826 286.6998 0001019  93.6161 254.4669 15.33418641    13

AllMySatでSTARLINK-37744をリアルタイム追跡

Download on the App Store